Location: La Comballaz
(46.3780°N, 7.0817°E)
Time: 01:28:17
(UTC+00:00)

Cosmos 1605 Rocket - Pass Details

Date: 09 April 2020
Orbit: 946 x 1005 km, 82.9° (Epoch: 30 May)

Event Time Altitude Azimuth Distance (km) Brightness Sun altitude
Rises 22:21:41 0° 348° (NNW) 3,644 8.0 -33.3°
Reaches altitude 10° 22:24:12 10° 346° (NNW) 2,700 7.1 -33.5°
Enters shadow 22:29:18 56° 308° (NW) 1,146 4.5 -33.8°
